Temperature
22 22 22 22 19 16 18 19 19 19 19 19 19 18 18 17 18 18 18 18 18 18 18 18 18 17 17 17 17 17 18 18 18 18 18 18 18 18 18 18 18 18 18 18 18 17 18 18 18
22 22 22 21 17 17 18 19 19 19 19 19 19 19 18 17 18 18 18 18 18 18 18 18 18 17 17 17 17 17 17 17 17 18 18 18 18 17 17 17 17 17 17 17 17 17 17 17 17
22 22 22 17 17 17 19 19 19 19 20 20 19 18 18 18 18 18 18 18 18 18 18 18 18 17 17 17 17 17 17 17 17 17 17 17 17 17 17 17 17 17 17 17 17 17 17 17 17
22 22 20 17 18 18 19 19 19 19 20 19 19 18 18 18 18 18 18 18 18 18 18 18 18 18 17 17 17 17 17 17 17 17 17 17 17 17 17 17 17 17 17 17 17 17 17 17 17
22 21 17 17 18 19 19 19 20 19 19 19 18 18 18 18 18 18 18 18 18 18 18 18 18 18 17 17 17 17 17 17 17 17 17 17 17 17 17 17 17 17 17 17 17 17 17 17 17
22 18 17 17 19 19 19 20 20 19 19 19 18 18 18 18 18 18 18 18 18 18 18 18 18 17 17 17 17 17 17 17 17 17 17 17 17 17 17 17 17 17 17 17 17 17 17 17 17
20 16 17 18 18 19 20 20 19 19 19 19 19 17 18 18 18 18 18 18 18 18 18 18 17 17 17 17 17 17 17 17 17 17 17 17 17 17 17 17 17 17 17 17 16 16 16 16 16
21 17 18 18 18 19 20 20 20 19 19 19 19 18 18 18 18 18 18 18 18 18 18 18 17 17 17 17 17 17 17 17 17 17 17 17 17 17 17 17 16 16 16 16 16 16 16 16 16
21 17 17 18 19 19 20 20 20 19 19 18 19 19 19 18 18 18 18 18 18 18 18 18 17 17 17 17 17 17 17 17 17 17 17 17 17 17 17 16 16 16 16 16 16 16 16 16 16
20 17 19 19 19 19 19 20 19 19 18 18 18 18 19 18 18 18 18 18 18 18 18 18 18 17 17 17 17 17 17 17 17 17 17 17 17 17 17 16 16 16 16 16 16 16 16 16 16
19 18 19 19 20 20 19 19 19 19 17 18 18 18 18 18 18 18 18 18 18 18 17 17 17 17 17 17 17 17 17 17 17 17 17 16 16 16 16 16 16 16 16 16 16 16 16 16 16
19 19 20 20 20 20 20 19 19 19 19 19 19 19 18 18 18 18 18 18 18 18 18 17 17 17 17 17 17 17 17 17 17 16 16 16 16 16 16 16 16 16 16 16 16 16 16 16 15
19 19 20 20 20 20 20 19 19 18 19 19 19 18 18 18 18 18 18 18 18 17 17 17 17 17 17 17 17 17 17 17 16 16 16 16 16 16 16 16 16 16 16 16 16 16 16 16 15
19 19 20 20 20 20 19 18 18 18 19 19 18 18 18 18 18 18 18 18 18 17 17 17 17 17 17 17 17 17 17 16 16 16 16 16 16 16 16 16 16 16 16 16 16 16 16 15 15
20 19 19 19 20 20 19 18 17 19 18 18 18 18 18 18 18 18 18 18 18 17 17 17 17 17 17 17 17 16 16 16 16 16 16 16 16 16 16 16 16 16 15 15 15 15 15 15 15
19 18 18 18 19 19 19 17 17 18 18 18 17 17 17 17 17 18 18 18 17 17 17 17 17 17 17 17 17 16 16 16 16 16 16 16 16 16 16 16 16 16 15 15 15 15 15 15 15
17 17 17 18 18 18 18 17 17 18 18 17 17 17 17 17 17 17 17 17 17 17 17 17 17 17 17 17 16 16 16 16 16 16 16 16 16 16 16 16 16 15 15 15 15 15 15 15 15
17 17 17 17 18 18 17 16 16 17 17 17 17 17 17 17 17 17 17 17 17 17 17 17 17 17 17 16 16 16 16 16 16 16 16 16 16 16 16 16 15 15 15 15 15 15 15 15 15
17 17 17 17 18 17 17 16 16 16 16 16 16 16 17 17 17 17 17 17 17 17 17 17 17 17 17 16 16 16 16 16 16 16 15 16 16 15 15 15 15 15 15 15 15 15 15 15 15
17 17 17 17 18 17 16 16 16 16 16 16 16 16 16 17 17 17 17 17 17 17 17 17 17 16 16 16 16 16 16 16 16 15 15 15 15 15 15 15 15 15 15 15 15 15 15 15 14
17 17 17 17 17 17 17 16 16 16 16 16 16 16 16 17 17 17 17 17 17 17 17 16 16 16 16 16 16 16 16 15 15 15 15 15 15 15 15 15 15 15 15 15 15 14 14 14 14
17 17 17 17 16 15 16 15 15 15 15 14 15 15 15 16 16 17 17 17 17 17 16 16 16 16 16 16 16 16 15 15 15 15 15 15 15 15 15 15 15 15 15 14 14 14 14 14 14
17 17 16 16 15 15 15 15 14 14 15 14 14 15 15 16 16 16 17 17 17 16 16 16 16 16 16 15 15 15 15 15 15 15 15 15 15 15 15 15 14 14 14 14 14 14 14 14 14
16 16 15 14 14 14 15 14 14 13 14 14 14 15 15 16 16 16 16 16 16 16 16 16 15 15 15 15 15 15 15 15 15 15 15 14 14 14 14 14 14 14 14 14 14 14 14 14 14
16 15 14 14 13 14 14 14 14 14 14 14 14 15 15 15 15 16 16 16 16 16 15 15 15 15 15 15 15 14 14 14 14 14 14 14 14 14 14 14 14 14 14 14 14 14 14 14 13
15 15 14 15 14 13 14 14 14 14 14 15 15 15 15 15 15 15 15 15 15 15 15 15 15 15 14 14 14 14 14 14 14 14 14 14 14 13 13 13 13 13 13 13 13 13 13 13 13
15 14 14 13 14 13 13 13 14 14 14 14 14 14 14 15 15 15 15 15 15 15 15 15 14 14 14 14 14 14 14 14 14 14 14 13 13 13 13 13 13 13 13 13 13 13 13 13 13
15 13 12 13 13 13 14 13 13 14 13 13 13 13 14 14 14 14 14 14 14 14 14 14 14 14 14 14 13 13 13 13 13 13 13 13 13 13 13 13 12 12 12 12 12 12 12 12 12
14 14 12 11 12 13 13 13 14 13 13 13 12 13 14 14 14 14 14 14 14 14 14 14 14 14 13 13 13 13 13 13 13 13 13 12 12 12 12 12 12 12 12 12 12 12 12 12 12
15 14 12 13 12 11 12 13 14 12 12 12 12 13 13 13 13 13 13 13 13 13 13 13 13 13 13 13 13 13 12 12 12 12 12 12 12 12 12 11 11 12 11 11 11 11 11 11 11
Wind_Speed
5 3 3 4 6 6 4 2 1 2 3 3 4 6 6 5 3 3 1 1 1 1 2 3 5 7 8 8 9 10 10 10 11 10 10 11 11 11 12 12 12 12 12 12 12 11 11 10 10
2 2 5 6 6 5 3 2 2 2 4 4 5 5 6 5 3 3 1 1 2 3 3 3 5 6 7 8 10 10 10 10 11 11 11 12 12 12 12 12 12 12 13 12 12 11 11 11 10
2 4 5 5 5 4 3 1 3 4 4 2 4 5 4 3 2 2 2 3 3 3 3 3 5 6 7 8 9 9 9 10 10 11 12 12 12 12 12 12 12 12 12 12 12 11 11 10 10
4 5 6 7 6 1 3 3 3 4 4 5 4 5 3 2 2 3 4 5 4 3 3 3 5 6 7 7 8 8 9 10 11 11 11 11 11 11 11 11 12 12 12 11 11 10 10 10 10
5 5 7 5 4 2 1 2 2 4 3 4 4 5 3 4 3 6 6 5 4 3 3 3 5 6 6 6 7 8 8 10 11 11 11 10 10 10 10 10 11 11 11 12 11 11 11 11 12
5 5 6 4 3 2 2 2 4 5 4 4 4 4 2 2 4 5 5 4 3 3 4 4 5 5 5 6 6 7 8 9 10 10 10 10 10 9 10 10 10 11 11 12 12 12 12 13 13
5 5 5 4 3 2 2 2 4 5 5 2 3 5 2 1 2 5 5 5 4 4 4 5 5 6 6 6 7 7 8 8 8 9 9 9 9 10 10 10 10 10 11 11 12 12 13 13 13
5 5 5 3 4 1 1 2 3 4 3 3 4 5 3 3 3 6 6 5 4 4 4 4 5 6 6 6 6 7 7 7 8 8 8 9 9 9 9 9 9 10 11 11 12 13 13 13 13
4 6 4 3 4 2 2 4 3 3 5 4 3 2 2 7 8 7 5 4 3 3 3 3 4 5 5 5 6 6 6 7 7 7 8 8 8 8 8 9 9 10 11 11 12 12 12 12 12
5 5 3 3 4 5 4 4 3 4 6 4 5 6 7 9 8 7 4 3 2 2 2 2 2 3 4 4 6 6 6 6 7 7 7 7 7 7 7 9 9 10 10 11 11 12 11 10 9
4 5 2 2 4 5 5 4 3 6 3 2 3 4 7 8 6 5 3 2 1 0 1 2 1 2 3 3 4 5 5 5 6 6 6 6 7 7 7 7 7 8 9 9 10 10 9 8 7
5 3 3 3 4 5 5 4 4 4 2 3 5 6 7 7 5 4 4 2 1 2 1 1 1 2 2 3 3 4 4 4 4 4 5 5 4 4 4 4 5 6 6 6 7 6 7 8 8
5 3 4 5 6 6 7 5 4 2 2 5 7 7 6 6 4 2 2 2 2 1 1 1 2 2 2 2 2 3 3 3 4 4 5 5 3 2 3 3 4 5 5 5 4 5 5 5 6
3 4 4 4 4 3 6 3 3 1 4 6 7 6 5 4 4 2 2 2 2 1 1 1 2 2 2 2 2 2 2 3 4 4 3 4 4 3 3 3 3 4 4 4 4 4 4 4 4
4 5 6 4 2 1 5 3 1 2 5 5 4 3 3 3 3 3 3 3 2 2 1 1 2 2 3 2 2 3 2 3 3 3 3 3 3 3 3 2 3 3 4 5 5 5 5 4 4
4 4 2 3 2 1 5 2 3 2 5 4 3 3 2 2 2 2 2 2 2 2 2 1 2 2 2 2 2 3 3 3 3 3 3 3 3 3 3 2 2 3 4 4 3 3 3 3 3
5 2 0 3 2 2 3 3 2 2 5 4 3 3 2 1 1 2 2 2 2 3 3 2 2 2 2 2 2 3 3 3 3 3 3 2 2 2 3 2 2 3 4 3 2 3 2 2 2
2 2 1 2 2 3 1 3 3 1 4 4 3 2 2 3 4 3 2 2 2 2 2 2 2 2 2 2 2 2 3 3 3 3 2 2 2 2 3 3 3 3 3 2 3 3 3 2 1
4 3 2 3 2 2 3 4 4 2 2 3 3 3 3 4 3 1 1 1 2 2 2 2 2 1 2 2 1 1 1 1 1 2 3 2 2 2 3 2 2 2 2 2 2 2 3 2 2
3 2 1 3 1 2 2 4 4 2 4 5 5 5 5 3 1 0 0 1 2 2 2 1 1 2 2 1 1 1 1 0 0 2 3 3 2 2 2 2 2 2 2 3 2 3 2 1 2
1 4 3 2 2 2 1 4 3 2 1 1 2 3 3 5 4 3 2 2 1 2 2 2 2 1 2 2 2 2 3 2 2 2 3 3 2 1 2 2 2 2 2 2 2 2 2 1 1
3 3 3 2 1 2 0 3 5 3 3 2 3 2 3 3 3 3 3 2 3 3 2 1 1 1 1 3 3 3 2 1 2 1 1 2 3 2 2 2 2 2 1 2 1 2 1 2 1
3 1 2 1 2 1 1 2 6 2 3 4 4 4 4 3 3 3 4 4 4 3 2 1 1 2 2 2 3 3 1 1 1 1 1 2 2 3 2 2 2 1 1 1 1 2 2 2 2
3 4 4 4 4 1 3 4 5 3 5 4 3 3 3 3 2 2 2 2 1 1 1 2 2 1 2 2 2 2 1 1 0 1 1 2 2 2 2 2 2 1 1 1 1 2 2 2 2
4 5 3 4 2 5 2 3 6 5 4 4 4 3 3 2 2 2 1 1 1 2 2 2 2 1 1 2 1 1 2 2 2 1 1 1 1 1 2 1 1 1 1 1 2 2 2 2 2
2 6 5 4 4 4 2 4 5 3 3 2 1 1 0 1 1 2 2 2 2 2 2 2 2 1 1 1 1 0 1 1 1 1 1 1 1 2 1 0 1 1 1 1 2 2 2 2 2
3 2 4 4 2 2 4 5 5 2 4 4 3 2 1 0 1 1 1 1 1 1 2 3 3 2 1 1 1 0 0 0 1 1 0 1 1 1 1 0 1 1 1 1 2 1 1 1 1
4 6 4 4 2 3 5 4 3 4 3 2 2 2 1 1 1 1 1 1 0 0 1 2 2 2 2 1 1 0 0 0 0 0 0 1 1 1 1 1 1 1 1 1 2 1 1 1 1
2 3 4 3 4 4 3 5 3 3 3 3 3 2 1 0 0 0 0 1 1 1 1 1 1 1 1 1 1 0 0 0 1 1 0 0 0 1 1 1 1 1 1 1 1 1 1 1 1
3 4 5 4 3 3 3 6 2 2 2 1 2 2 1 1 1 1 1 1 1 1 1 1 0 0 1 1 1 1 0 1 1 0 0 0 1 0 1 1 1 1 1 1 1 1 1 1 1
Wind_Direction
354 40 72 58 55 56 55 2 28 50 53 38 61 79 92 82 85 122 261 151 137 104 45 60 86 85 82 78 75 73 73 72 74 75 76 82 84 81 80 78 75 72 75 83 84 82 80 81 83
11 52 54 58 78 76 27 344 74 89 141 134 69 71 73 68 72 112 136 155 115 102 72 69 90 87 84 81 78 75 73 73 75 75 77 83 83 83 82 78 75 74 74 79 81 80 77 78 81
47 51 72 66 84 124 142 184 112 85 90 92 69 57 73 87 112 154 185 137 101 81 68 72 93 89 86 85 83 79 75 76 78 79 78 80 81 82 80 76 74 73 75 77 81 81 78 78 78
67 45 55 69 76 117 158 167 140 104 62 50 86 65 52 32 150 155 130 118 102 73 60 71 94 93 87 84 86 83 80 80 81 81 81 81 80 80 79 75 74 72 73 75 77 79 78 77 77
59 69 63 62 47 16 58 137 122 92 76 52 82 89 41 353 86 113 119 113 107 75 48 56 84 89 87 84 82 81 80 79 80 82 82 80 78 76 75 73 75 73 72 72 73 74 75 77 75
54 65 81 83 52 21 39 87 101 87 90 84 88 95 51 14 96 115 108 99 94 80 54 48 66 76 81 83 81 80 80 80 78 80 79 77 76 74 74 74 76 75 74 71 70 72 76 77 76
93 85 101 112 89 49 65 62 92 98 90 97 116 97 74 54 116 108 93 82 71 63 55 39 39 50 64 75 77 76 76 79 78 77 77 75 74 72 71 71 73 74 73 73 73 77 77 77 76
110 97 84 94 111 87 65 75 83 95 101 91 97 121 164 200 122 94 79 68 66 56 48 37 33 40 48 55 67 70 69 70 70 69 69 69 66 63 64 67 72 73 73 73 75 76 77 76 73
82 80 112 161 147 137 87 83 60 65 89 68 61 117 144 117 102 88 71 50 50 53 36 35 33 33 40 48 60 61 65 63 62 58 60 60 54 52 55 62 71 71 73 73 74 75 76 74 69
77 107 163 180 156 133 97 90 100 79 63 49 46 46 82 101 107 107 103 92 58 25 6 30 40 40 41 51 56 53 58 59 58 56 54 55 54 50 56 58 64 65 67 68 70 72 70 67 61
85 126 120 85 122 118 102 74 68 110 87 160 138 116 108 109 114 122 124 123 138 46 26 35 40 50 50 48 54 50 53 54 54 53 58 59 53 48 48 47 47 51 55 57 62 62 61 63 62
85 73 108 103 102 105 115 106 79 95 175 159 134 129 125 128 138 144 142 130 93 78 33 30 50 56 50 60 59 57 56 53 48 52 63 68 60 49 47 50 46 49 53 61 65 68 66 66 64
79 77 79 87 86 99 96 98 114 42 61 100 109 113 129 139 145 139 132 119 94 90 45 47 70 68 60 66 59 65 61 63 58 56 60 73 73 56 53 55 55 54 59 65 67 70 68 64 61
110 92 71 64 79 85 98 74 91 296 94 102 115 133 146 150 151 126 112 125 127 140 138 95 86 73 68 73 76 70 62 69 68 59 59 75 83 77 65 53 50 50 60 71 79 77 75 68 68
90 72 35 19 59 105 99 35 271 219 116 118 133 149 150 162 152 165 178 166 170 186 174 140 121 85 79 67 70 76 66 70 69 63 60 66 78 82 81 70 51 47 67 76 79 73 71 71 68
55 59 41 335 32 94 116 227 271 163 137 148 162 166 172 203 192 201 176 149 151 157 153 149 133 103 89 75 66 70 74 75 64 62 63 63 69 85 88 76 52 60 76 75 77 73 71 66 64
36 79 209 316 2 105 135 219 260 157 155 170 185 189 192 221 267 243 187 166 158 162 155 136 112 114 113 93 73 71 69 68 63 62 60 55 59 88 100 85 68 80 78 69 81 69 82 80 63
202 174 207 259 324 93 137 254 286 181 171 184 191 199 201 215 240 237 203 176 156 138 128 123 107 107 110 89 65 57 52 42 48 50 46 55 65 78 93 81 69 80 81 65 75 82 68 80 78
169 165 208 256 250 151 214 260 277 225 194 202 204 206 210 228 250 232 184 157 125 99 104 122 114 115 108 88 92 84 33 359 9 17 17 38 54 83 95 79 76 78 96 97 100 97 79 55 52
141 144 270 309 359 174 226 271 276 233 219 215 208 212 212 228 264 230 192 121 154 158 149 136 140 143 140 151 162 151 146 308 329 6 9 14 26 65 104 97 107 99 101 91 93 99 98 61 50
166 179 201 236 356 34 12 313 298 299 265 232 223 218 214 208 211 207 202 195 175 183 191 184 176 155 151 126 91 65 53 32 17 1 346 349 1 30 86 102 104 106 119 123 115 111 115 121 47
240 223 188 181 105 289 312 274 285 284 314 278 246 230 228 231 216 205 192 194 203 216 207 179 154 125 128 124 117 116 128 192 249 261 287 335 15 20 71 104 105 103 105 116 141 128 130 131 123
211 104 113 125 142 343 327 232 286 319 288 282 259 245 239 225 211 205 200 202 204 199 177 153 112 97 98 123 139 136 164 237 273 317 352 358 7 19 38 74 93 110 113 123 122 104 110 118 138
134 70 57 53 72 285 247 202 284 266 253 269 262 257 251 229 203 209 205 184 187 146 127 111 109 95 94 116 127 143 178 249 357 348 344 341 345 353 16 42 57 72 100 124 132 125 118 122 120
79 86 30 1 2 256 255 204 253 265 255 235 243 255 255 220 180 185 167 165 161 147 146 135 131 119 109 119 131 169 189 189 206 237 256 317 329 322 308 20 61 76 99 110 109 129 128 125 125
153 137 159 208 235 280 294 234 253 277 292 283 245 229 176 123 169 194 189 177 158 155 156 144 145 137 125 134 179 215 184 179 216 223 221 233 259 275 281 109 103 93 96 105 107 128 146 132 135
128 158 168 146 194 269 278 286 305 350 11 16 25 47 69 229 212 188 156 142 145 162 166 165 162 152 169 180 177 145 308 236 247 265 243 251 273 300 33 55 94 74 75 98 121 126 135 133 149
138 142 102 126 167 261 288 275 267 293 298 322 335 335 304 9 34 54 68 82 77 153 165 144 150 168 173 154 164 149 238 245 252 104 34 338 345 31 97 61 78 84 82 103 127 137 129 115 152
102 108 119 128 160 172 263 274 235 234 252 256 271 295 296 48 155 97 45 26 57 44 64 120 138 124 116 147 159 127 317 39 79 103 196 346 31 54 82 84 89 87 80 79 109 101 120 128 100
169 168 148 158 223 183 204 267 304 261 244 243 285 309 333 5 32 49 53 52 57 53 50 70 134 206 215 175 135 99 18 46 90 86 312 83 111 104 96 94 98 93 78 89 119 123 103 137 140
Height
1490 1489 1490 1491 1496 1511 1517 1514 1510 1509 1510 1510 1510 1510 1512 1515 1519 1524 1520 1518 1518 1517 1517 1516 1516 1515 1515 1514 1514 1513 1513 1513 1512 1511 1510 1509 1510 1511 1512 1512 1511 1511 1510 1510 1512 1513 1513 1514 1514
1490 1490 1492 1493 1508 1524 1522 1513 1511 1510 1510 1511 1511 1512 1513 1516 1517 1519 1518 1519 1519 1518 1518 1517 1517 1517 1516 1516 1515 1515 1515 1514 1514 1513 1511 1511 1512 1513 1513 1514 1513 1513 1513 1513 1513 1514 1515 1515 1516
1491 1492 1494 1499 1514 1522 1519 1513 1511 1510 1511 1511 1513 1514 1516 1518 1519 1519 1520 1520 1520 1520 1519 1519 1518 1518 1518 1517 1517 1517 1516 1516 1516 1515 1514 1514 1514 1514 1515 1515 1515 1515 1515 1515 1516 1516 1517 1517 1517
1493 1494 1497 1508 1516 1515 1512 1511 1510 1511 1512 1513 1514 1516 1518 1520 1521 1521 1521 1521 1521 1521 1521 1520 1520 1519 1519 1519 1519 1519 1518 1518 1517 1517 1517 1516 1517 1517 1517 1517 1517 1517 1517 1518 1518 1518 1518 1518 1518
1494 1496 1506 1516 1516 1513 1511 1511 1511 1511 1513 1515 1515 1518 1520 1522 1522 1522 1522 1523 1523 1523 1523 1522 1522 1521 1521 1521 1520 1520 1520 1519 1519 1519 1519 1519 1519 1519 1519 1519 1518 1519 1519 1519 1519 1519 1519 1519 1519
1496 1500 1517 1523 1518 1514 1512 1512 1512 1513 1515 1516 1517 1519 1522 1523 1524 1524 1524 1525 1525 1525 1524 1524 1524 1523 1523 1523 1522 1522 1522 1521 1521 1521 1521 1521 1521 1521 1521 1521 1521 1521 1521 1521 1521 1521 1521 1520 1520
1499 1507 1518 1520 1520 1517 1514 1514 1514 1515 1516 1518 1519 1520 1523 1524 1525 1526 1526 1526 1526 1526 1526 1526 1525 1525 1525 1524 1524 1524 1524 1523 1523 1523 1523 1523 1523 1523 1523 1523 1523 1523 1523 1523 1523 1523 1522 1522 1522
1500 1508 1517 1520 1520 1518 1515 1515 1516 1517 1518 1520 1520 1522 1524 1525 1526 1527 1527 1528 1528 1528 1528 1527 1527 1527 1527 1526 1526 1526 1526 1525 1525 1525 1525 1525 1525 1525 1525 1525 1525 1525 1525 1525 1525 1524 1524 1524 1523
1502 1513 1521 1519 1519 1518 1515 1516 1518 1519 1519 1521 1522 1523 1524 1525 1526 1527 1528 1529 1529 1529 1529 1529 1529 1528 1528 1528 1528 1528 1528 1527 1527 1527 1527 1527 1527 1527 1527 1527 1527 1527 1527 1527 1526 1526 1526 1525 1525
1504 1517 1517 1514 1514 1515 1516 1517 1519 1520 1521 1522 1523 1524 1525 1525 1526 1527 1528 1529 1530 1530 1530 1530 1530 1530 1530 1530 1530 1530 1529 1529 1529 1529 1529 1529 1529 1528 1528 1528 1528 1528 1528 1528 1528 1528 1527 1527 1526
1507 1513 1513 1513 1513 1515 1517 1519 1520 1521 1524 1524 1524 1525 1525 1526 1527 1528 1529 1530 1531 1531 1531 1531 1532 1532 1532 1532 1532 1531 1531 1531 1531 1531 1531 1530 1530 1530 1530 1530 1530 1530 1530 1530 1529 1529 1529 1528 1528
1510 1512 1512 1514 1515 1516 1518 1520 1522 1523 1524 1524 1525 1526 1526 1526 1528 1529 1530 1531 1532 1532 1532 1533 1533 1533 1533 1533 1533 1533 1533 1533 1532 1532 1532 1532 1532 1531 1531 1531 1531 1531 1531 1531 1531 1530 1530 1530 1529
1511 1514 1515 1516 1516 1518 1519 1521 1523 1525 1525 1525 1526 1526 1527 1527 1529 1530 1531 1532 1533 1533 1533 1533 1533 1534 1534 1534 1534 1534 1534 1534 1534 1534 1534 1533 1533 1533 1532 1532 1532 1532 1532 1532 1532 1531 1531 1531 1530
1513 1515 1516 1517 1518 1519 1520 1523 1524 1526 1526 1526 1526 1527 1528 1529 1530 1530 1531 1532 1533 1533 1533 1534 1534 1534 1534 1535 1535 1535 1535 1535 1535 1535 1535 1534 1534 1534 1534 1533 1533 1533 1533 1533 1533 1532 1532 1532 1531
1514 1517 1519 1519 1519 1520 1522 1526 1526 1526 1526 1526 1527 1528 1529 1529 1530 1531 1531 1532 1533 1533 1534 1534 1535 1535 1535 1535 1536 1536 1536 1536 1536 1536 1535 1535 1535 1535 1534 1534 1534 1533 1533 1533 1533 1533 1533 1532 1532
1516 1522 1528 1523 1520 1521 1526 1533 1527 1526 1526 1526 1527 1528 1529 1530 1530 1531 1532 1532 1533 1534 1534 1535 1535 1535 1536 1536 1536 1536 1537 1537 1537 1536 1536 1536 1536 1535 1535 1534 1534 1534 1534 1534 1534 1533 1533 1533 1533
1525 1532 1531 1526 1522 1522 1525 1530 1526 1526 1526 1526 1527 1528 1528 1529 1530 1531 1532 1532 1533 1534 1534 1535 1535 1536 1536 1536 1537 1537 1537 1537 1537 1537 1537 1536 1536 1536 1535 1535 1535 1534 1534 1534 1534 1534 1534 1534 1533
1532 1532 1531 1530 1525 1524 1528 1529 1526 1526 1526 1526 1526 1527 1528 1528 1529 1530 1531 1532 1533 1533 1534 1535 1535 1536 1536 1536 1537 1537 1537 1537 1537 1536 1536 1536 1536 1536 1535 1535 1535 1535 1534 1534 1534 1534 1534 1534 1534
1525 1529 1531 1528 1524 1526 1528 1529 1526 1525 1526 1526 1526 1526 1527 1528 1529 1530 1530 1531 1532 1533 1533 1534 1534 1535 1535 1536 1536 1536 1536 1536 1536 1536 1536 1536 1536 1536 1536 1535 1535 1534 1534 1534 1534 1534 1534 1534 1534
1525 1529 1531 1528 1524 1526 1528 1528 1524 1524 1524 1524 1524 1525 1525 1526 1527 1528 1529 1530 1530 1531 1532 1533 1533 1534 1534 1535 1535 1536 1536 1536 1536 1536 1536 1536 1536 1535 1535 1535 1534 1534 1533 1533 1533 1533 1533 1533 1533
1526 1529 1529 1530 1527 1527 1529 1531 1526 1523 1522 1522 1523 1523 1524 1524 1525 1526 1527 1528 1529 1530 1531 1531 1532 1533 1533 1534 1534 1535 1535 1535 1535 1535 1535 1535 1535 1534 1534 1534 1534 1533 1533 1532 1532 1532 1532 1532 1533
1528 1523 1524 1527 1533 1538 1534 1543 1530 1524 1523 1521 1521 1522 1522 1522 1523 1524 1525 1526 1527 1528 1529 1530 1531 1532 1532 1533 1533 1533 1533 1533 1534 1534 1534 1534 1534 1534 1533 1533 1533 1533 1532 1532 1531 1531 1531 1532 1532
1523 1521 1524 1527 1533 1539 1537 1541 1535 1526 1524 1521 1520 1519 1520 1520 1521 1522 1523 1525 1526 1527 1528 1529 1530 1530 1531 1531 1532 1532 1532 1532 1533 1533 1533 1533 1532 1532 1532 1532 1532 1531 1531 1531 1530 1530 1531 1531 1531
1520 1524 1528 1534 1539 1547 1539 1542 1538 1530 1523 1519 1518 1518 1518 1518 1520 1521 1522 1523 1524 1525 1526 1527 1528 1529 1529 1530 1530 1531 1531 1531 1531 1531 1531 1531 1531 1531 1530 1530 1530 1530 1529 1529 1529 1529 1529 1529 1530
1523 1534 1546 1548 1553 1549 1537 1539 1536 1522 1518 1517 1516 1516 1516 1517 1518 1519 1520 1520 1522 1523 1524 1525 1526 1526 1528 1528 1529 1529 1529 1530 1529 1529 1529 1529 1529 1529 1528 1528 1528 1528 1528 1528 1528 1528 1528 1528 1528
1526 1531 1547 1553 1554 1548 1538 1539 1529 1519 1516 1515 1515 1515 1516 1516 1517 1518 1518 1519 1520 1521 1522 1523 1524 1525 1526 1527 1527 1528 1528 1528 1528 1528 1527 1527 1527 1527 1527 1526 1526 1526 1526 1526 1526 1526 1526 1526 1527
1527 1532 1532 1543 1545 1548 1543 1534 1525 1517 1516 1515 1515 1515 1515 1515 1516 1517 1517 1518 1518 1519 1520 1521 1522 1523 1524 1525 1526 1526 1526 1526 1526 1526 1526 1525 1525 1525 1524 1524 1524 1524 1524 1524 1524 1524 1524 1524 1525
1522 1528 1538 1543 1550 1552 1543 1537 1532 1522 1519 1517 1516 1515 1515 1515 1515 1516 1516 1517 1517 1518 1519 1520 1521 1521 1522 1523 1524 1524 1524 1524 1524 1524 1523 1523 1523 1522 1522 1522 1522 1522 1522 1522 1522 1522 1522 1522 1523
1526 1530 1534 1542 1543 1550 1549 1539 1522 1520 1518 1517 1516 1515 1515 1514 1515 1515 1515 1516 1517 1517 1518 1518 1519 1520 1520 1521 1522 1522 1522 1522 1522 1521 1521 1521 1521 1520 1520 1519 1519 1519 1519 1520 1520 1520 1520 1520 1520
1521 1525 1532 1540 1543 1546 1547 1540 1518 1517 1516 1516 1516 1515 1515 1515 1514 1514 1514 1515 1515 1516 1516 1517 1517 1518 1519 1519 1520 1520 1520 1520 1519 1519 1519 1519 1518 1518 1518 1517 1517 1517 1517 1517 1518 1518 1518 1518 1518